Printer-friendly version
Follow the MPC on Twitter Follow the MPC on Facebook The MPC blog
Minor Planet Center

MPEC 2007-V48 : 2007 VL8

The following Minor Planet Electronic Circular may be linked-to from your own Web pages, but must not otherwise be redistributed electronically.

A form allowing access to any MPEC is at the bottom of this page.


Read MPEC 2007-V47 Read MPEC 2007-V49


M.P.E.C. 2007-V48                                Issued 2007 Nov. 6, 13:12 UT

     The Minor Planet Electronic Circulars contain information on unusual
         minor planets and routine data on comets.  They are published
   on behalf of Commission 20 of the International Astronomical Union by the
          Minor Planet Center, Smithsonian Astrophysical Observatory,
                          Cambridge, MA 02138, U.S.A.

             Prepared using the Tamkin Foundation Computer Network

                              MPC@CFA.HARVARD.EDU
          URL http://www.cfa.harvard.edu/iau/mpc.html  ISSN 1523-6714

                                   2007 VL8

Observations:
     K07V08L* C2007 11 05.34870 03 48 51.84 +01 01 59.3          18.3 V EV048703
     K07V08L  C2007 11 05.35643 03 48 48.67 +01 02 11.1          18.6 V EV048703
     K07V08L  C2007 11 05.36414 03 48 45.61 +01 02 23.6          18.4 V EV048703
     K07V08L  C2007 11 05.37185 03 48 42.40 +01 02 35.2          18.2 V EV048703
     K07V08L  C2007 11 05.40198 03 48 30.45 +01 03 23.5          18.4 V EV048703
     K07V08L  C2007 11 05.41807 03 48 23.97 +01 03 49.4          18.8 V EV048703
     K07V08L  C2007 11 05.43426 03 48 17.53 +01 04 14.8          19.0 V EV048703
     K07V08L  C2007 11 05.45038 03 48 11.16 +01 04 40.9          19.4 V EV048703
     K07V08L  C2007 11 05.99408 03 44 44.65 +01 18 54.6          18.7 V EV048B03
     K07V08L  C2007 11 06.00197 03 44 41.41 +01 19 06.4          19.8 V EV048B03
     K07V08L  C2007 11 06.00987 03 44 38.39 +01 19 19.2          19.3 V EV048B03
     K07V08L  C2007 11 06.13615 03 43 49.47 +01 22 38.0                 EV048J95
     K07V08L  C2007 11 06.13969 03 43 48.12 +01 22 43.2                 EV048J95
     K07V08L  C2007 11 06.14582 03 43 45.73 +01 22 52.9                 EV048J95
     K07V08L  C2007 11 06.14906 03 43 44.45 +01 22 57.9          18.9 R EV048J95
     K07V08L  C2007 11 06.38520 03 42 15.33 +01 29 24.5          18.9 V EV048G96
     K07V08L  C2007 11 06.38561 03 42 15.15 +01 29 24.6          19.1 V EV048G96
     K07V08L  C2007 11 06.38603 03 42 14.97 +01 29 25.1          19.1 V EV048G96
     K07V08L  C2007 11 06.38645 03 42 14.83 +01 29 26.0          18.8 V EV048G96

Observer details:
703 Catalina Sky Survey.  Observer R. A. Kowalski.  Measurers E. C. Beshore,
    A. Boattini, G. J. Garradd, A. R. Gibbs, A. D. Grauer, R. E. Hill,
    R. A. Kowalski, S. M. Larson, R. H. McNaught, R. H.  0.68-m Schmidt + CCD.
B03 Alter Satzberg, Vienna.  Observer M. Pietschnig.  0.35-m f/7
    Schmidt-Cassegrain + CCD.
G96 Mt. Lemmon Survey.  Observer A. R. Gibbs.  Measurers E. C. Beshore,
    A. Boattini, G. J. Garradd, A. R. Gibbs, A. D. Grauer, R. E. Hill,
    R. A. Kowalski, S. M. Larson, R. H. McNaught.  1.5-m reflector + CCD.
J95 Great Shefford.  Observer P. Birtwhistle.  0.40-m f/6.0 Schmidt-Cassegrain
    + CCD.

Orbital elements:
2007 VL8                                                 Earth MOID = 0.1124 AU
Epoch 2007 Oct. 27.0 TT = JDT 2454400.5                 MPC
M 107.99818              (2000.0)            P               Q
n   1.08863283     Peri.  194.61334     -0.22874543     +0.96238807
a   0.9358691      Node    62.34471     -0.87572712     -0.13766611
e   0.3640924      Incl.    9.52524     -0.42517942     -0.23421625
P   0.91           H   21.2           G   0.15           U   9
Residuals in seconds of arc
071105 703  1.0+  0.3+    071105 703  0.3+  0.5+    071106 J95  0.0   0.2-
071105 703  0.0   0.2-    071105 B03  0.6+  0.4+    071106 G96  0.1+  0.5+
071105 703  0.4+  0.1+    071106 B03  1.4-  0.3-    071106 G96  0.1-  0.0
071105 703  1.3-  0.6-    071106 B03  0.0   0.1-    071106 G96  0.4-  0.2-
071105 703  0.3+  0.1-    071106 J95  0.2-  0.3+    071106 G96  0.0   0.1+
071105 703  0.5-  0.2+    071106 J95  0.3+  0.1-
071105 703  0.3-  0.1-    071106 J95  0.2+  0.1-

Ephemeris:
2007 VL8                 a,e,i = 0.94, 0.36, 10                  q = 0.5951
Date    TT    R. A. (2000) Decl.     Delta      r     Elong.  Phase     V
2007 11 06    03 44.71   +01 19.6    0.192    1.172   158.9    17.7    18.9
2007 11 16    02 48.38   +05 28.9    0.224    1.206   164.4    12.7    19.1
2007 11 26    02 10.72   +08 49.8    0.276    1.233   150.0    23.6    20.0
2007 12 06    01 50.16   +11 28.1    0.341    1.254   136.3    32.9    20.7
2007 12 16    01 42.01   +13 42.7    0.414    1.268   125.0    39.5    21.4
2007 12 26    01 42.37   +15 46.1    0.491    1.275   115.6    44.1    21.9

Timothy B. Spahr             (C) Copyright 2007 MPC           M.P.E.C. 2007-V48

Read MPEC 2007-V47 Read MPEC 2007-V49


MPEC number:

Enter an MPEC number in one of the following forms:

  • 1997-B01 (the full form)
  • J97B01 (the packed version of the full form)
  • B01 (the abbreviated form)

Valid HTML 4.01!